[[{"header":{"parameterUnit":"m.s-1","parameterCategory":1,"la1":30.2991,"la2":30.254,"lo1":-89.0895,"lo2":-89.0444,"dy":0.0017,"dx":0.0017,"nx":28,"ny":28,"refTime":"2024-03-15T03:00:00:Z","depth":0,"parameterNumber":2,"parameterNumberName":"U-component_of_WINDS"},"data":[0,0,0,0,0,0,0,0,0,0,0,0,0,0,0,0,0,0,0,0,0,0,0,0,0,0,0,0,0,0,0,0,0,0,0,0,0,0,0,0,0,0,0,0,0,0,0,0,0,0,0,0,0,0,0,0,0,0,-0.7508,-0.7508,0,-0.7508,-0.7508,-0.7508,-0.7534,-0.7535,-0.7536,-0.7537,-0.7532,-0.7532,-0.7531,0,0,0,0,0,0,0,0,0,0,0,0,0,-0.7531,-0.753,-0.7508,-0.7508,-0.7508,-0.7508,-0.7508,-0.7508,-0.7534,-0.7535,-0.7536,-0.7537,-0.7533,-0.7532,-0.7531,0,0,0,0,0,0,0,0,0,0,0,0,0,-0.7524,-0.753,-0.7508,-0.7522,-0.7523,-0.7508,-0.7508,-0.7507,-0.7534,-0.7535,-0.7536,-0.7537,-0.7533,-0.7532,-0.7531,-0.7501,0,0,-0.7527,-0.7526,0,0,0,0,0,0,0,0,-0.7525,-0.7523,-0.752,-0.7521,-0.7522,-0.7522,-0.7514,-0.7505,-0.7534,-0.753,-0.7537,-0.7538,-0.7528,-0.7527,-0.7525,-0.7501,-0.7501,-0.7527,-0.7526,-0.7526,-0.7525,0,0,0,0,0,0,0,-0.7525,-0.7524,-0.7508,-0.752,-0.7521,-0.7527,-0.7527,-0.7512,-0.7523,-0.753,-0.7532,-0.7532,-0.7529,-0.7526,-0.7525,-0.7501,-0.7527,-0.7526,-0.7525,-0.7525,-0.7453,-0.7451,0,0,0,0,0,0,-0.7524,-0.7524,-0.7508,-0.7508,-0.7526,-0.7526,-0.7526,-0.7521,-0.7523,-0.7524,-0.7531,-0.7533,-0.7527,-0.7526,-0.7525,-0.7489,-0.7526,-0.7525,-0.7524,-0.7454,-0.7452,-0.7451,0,0,0,0,0,0,-0.7524,-0.7522,-0.7508,-0.7516,-0.7515,-0.7524,-0.7518,-0.752,-0.7517,-0.7523,-0.7525,-0.7526,-0.7528,-0.7526,-0.7507,-0.749,-0.7524,-0.7523,-0.7455,-0.7453,-0.7452,-0.7419,0,0,0,0,0,0,-0.7525,-0.7522,-0.7512,-0.7516,-0.7515,-0.7491,-0.7517,-0.752,-0.7516,-0.7518,-0.7519,-0.752,-0.7529,-0.7509,-0.7506,-0.7489,-0.7522,-0.7457,-0.7454,-0.7452,-0.7422,-0.7417,-0.7412,0,0,0,0,0,-0.7526,-0.7503,-0.7511,-0.7509,-0.7502,-0.749,-0.7489,-0.75,-0.7514,-0.7503,-0.7507,-0.752,-0.7493,-0.7506,-0.7503,-0.7486,-0.7458,-0.7455,-0.7452,-0.7424,-0.7418,-0.7412,0,0,0,0,0,0,-0.7495,-0.7503,-0.7513,-0.7491,-0.749,-0.7495,-0.7481,-0.7493,-0.7487,-0.749,-0.7503,-0.7503,-0.7481,-0.7482,-0.7497,-0.7457,-0.7477,-0.7474,-0.7457,-0.7451,-0.7446,-0.7445,-0.7521,0,0,0,0,0,-0.7486,-0.7477,-0.7484,-0.7464,-0.7463,-0.7472,-0.7467,-0.7476,-0.7475,-0.7474,-0.7477,-0.7474,-0.7465,-0.7458,-0.745,-0.7423,-0.7422,-0.7409,-0.7404,-0.74,-0.7396,-0.7381,-0.7374,-0.7442,-0.7442,-0.7442,0,0,-0.7466,-0.747,-0.7463,-0.7458,-0.7458,-0.7446,-0.7471,-0.7459,-0.745,-0.7472,-0.7454,-0.7456,-0.7454,-0.743,-0.742,-0.743,-0.7378,-0.7397,-0.7393,-0.7392,-0.7377,-0.7371,-0.7365,-0.744,-0.7441,-0.7441,0,0,-0.7425,-0.7427,-0.741,-0.741,-0.741,-0.7417,-0.7413,-0.7416,-0.7418,-0.7401,-0.7416,-0.7406,-0.739,-0.7388,-0.7384,-0.7342,-0.7354,-0.734,-0.7313,-0.7297,-0.7292,-0.7287,-0.7271,-0.7265,-0.7336,-0.7336,-0.7336,0,-0.74,-0.7385,-0.7399,-0.7386,-0.7382,-0.7403,-0.7384,-0.7383,-0.738,-0.7377,-0.7389,-0.7369,-0.7369,-0.7345,-0.7335,-0.7332,-0.7326,-0.7338,-0.7292,-0.7287,-0.7283,-0.7267,-0.7261,-0.7334,-0.7334,-0.7335,-0.7335,0,-0.7354,-0.7343,-0.7329,-0.7327,-0.7322,-0.7306,-0.7316,-0.731,-0.7319,-0.7324,-0.7305,-0.7306,-0.7298,-0.7294,-0.7302,-0.727,-0.7276,-0.729,-0.731,-0.7274,-0.726,-0.7254,-0.7331,-0.7332,-0.7333,-0.7333,0,0,-0.7291,-0.7298,-0.7292,-0.7291,-0.7293,-0.7284,-0.7269,-0.7262,-0.7255,-0.7253,-0.7239,-0.7226,-0.7239,-0.7235,-0.7243,-0.723,-0.7195,-0.7246,-0.7246,-0.7234,-0.7157,-0.7145,-0.7138,-0.7203,-0.7202,-0.7201,-0.7157,0,-0.725,-0.7224,-0.7237,-0.721,-0.7199,-0.7219,-0.7205,-0.7205,-0.7209,-0.72,-0.7205,-0.7194,-0.7213,-0.721,-0.7198,-0.7202,-0.7179,-0.7205,-0.7189,-0.7188,-0.7186,-0.7131,-0.7118,-0.7076,-0.7151,-0.715,-0.715,0,-0.7197,-0.7193,-0.7165,-0.7169,-0.7165,-0.7152,-0.7147,-0.7139,-0.7138,-0.7142,-0.7138,-0.715,-0.7134,-0.7156,-0.7133,-0.7151,-0.7145,-0.7146,-0.7144,-0.7141,-0.7165,-0.7124,-0.7063,-0.7055,-0.7141,-0.7142,-0.7142,0,-0.7152,-0.714,-0.7121,-0.712,-0.7124,-0.7115,-0.7116,-0.7116,-0.7111,-0.7106,-0.7103,-0.7096,-0.7091,-0.7085,-0.7094,-0.711,-0.7069,-0.7093,-0.7071,-0.707,-0.7059,-0.7059,-0.6994,-0.7059,-0.7059,-0.7059,-0.706,0,-0.7103,-0.7084,-0.7101,-0.7089,-0.7068,-0.7083,-0.7062,-0.7065,-0.7066,-0.7054,-0.7071,-0.706,-0.7074,-0.7063,-0.707,-0.7049,-0.7047,-0.7049,-0.7051,-0.7046,-0.7046,-0.7041,-0.7043,-0.7058,-0.7058,-0.7058,-0.7059,0,-0.7047,-0.7058,-0.7039,-0.7045,-0.7046,-0.7031,-0.7035,-0.7024,-0.703,-0.7015,-0.7012,-0.7021,-0.701,-0.7019,-0.7008,-0.7012,-0.6984,-0.6991,-0.6984,-0.6985,-0.6962,-0.6963,-0.6889,-0.6879,-0.6953,-0.6953,-0.6952,0,-0.7014,-0.7001,-0.7005,-0.6999,-0.7,-0.699,-0.6985,-0.6999,-0.6993,-0.6991,-0.6979,-0.697,-0.6962,-0.6943,-0.6948,-0.6939,-0.6944,-0.6919,-0.6943,-0.6938,-0.6941,-0.6941,-0.6939,-0.6913,-0.6912,-0.6912,-0.6911,0,-0.6953,-0.696,-0.6952,-0.6947,-0.6941,-0.6937,-0.6934,-0.6928,-0.6942,-0.6934,-0.6923,-0.6918,-0.6907,-0.6896,-0.6889,-0.6889,-0.6901,-0.6904,-0.6898,-0.6892,-0.6888,-0.6888,-0.6969,-0.6905,-0.6906,-0.6906,-0.6906,-0.6907,-0.6907,-0.6895,-0.6897,-0.6888,-0.6888,-0.6885,-0.6874,-0.688,-0.6871,-0.6863,-0.6872,-0.6858,-0.6857,-0.6849,-0.6848,-0.6836,-0.6846,-0.6838,-0.6836,-0.6833,-0.6829,-0.6892,-0.6835,-0.6835,-0.6836,-0.6836,-0.6836,0,-0.6845,-0.6847,-0.6839,-0.6835,-0.6828,-0.6843,-0.6841,-0.6833,-0.6821,-0.682,-0.6813,-0.6799,-0.6789,-0.6794,-0.6784,-0.6774,-0.678,-0.6771,-0.6771,-0.677,-0.6821,-0.6826,-0.6767,-0.6767,-0.6767,-0.6767,-0.6767,-0.6767,-0.6812,-0.6792,-0.6799,-0.6779,-0.6781,-0.6768,-0.6766,-0.6763,-0.6762,-0.6746,-0.6739,-0.6742,-0.6743,-0.6734,-0.6725,-0.6726,-0.6721,-0.671,-0.6713,-0.676,-0.6767,-0.6773,-0.6778,-0.6709,-0.6709,-0.6663,-0.6662,-0.6662]},{"header":{"parameterUnit":"m.s-1","parameterCategory":1,"la1":30.2991,"la2":30.254,"lo1":-89.0895,"lo2":-89.0444,"dy":0.0017,"dx":0.0017,"nx":28,"ny":28,"refTime":"2024-03-15T03:00:00:Z","depth":0,"parameterNumber":3,"parameterNumberName":"V-component_of_WINDS"},"data":[0,0,0,0,0,0,0,0,0,0,0,0,0,0,0,0,0,0,0,0,0,0,0,0,0,0,0,0,0,0,0,0,0,0,0,0,0,0,0,0,0,0,0,0,0,0,0,0,0,0,0,0,0,0,0,0,0,0,2.3693,2.3694,0,2.3759,2.3759,2.376,2.3737,2.3735,2.3734,2.3733,2.3798,2.3801,2.3804,0,0,0,0,0,0,0,0,0,0,0,0,0,2.3548,2.355,2.3693,2.3694,2.3695,2.3758,2.3759,2.376,2.3737,2.3735,2.3734,2.3732,2.3797,2.3801,2.3805,0,0,0,0,0,0,0,0,0,0,0,0,0,2.3612,2.3551,2.3693,2.3691,2.3691,2.3758,2.3759,2.376,2.3737,2.3735,2.3733,2.3731,2.3796,2.3801,2.3805,2.3877,0,0,2.3819,2.3821,0,0,0,0,0,0,0,0,2.3608,2.3617,2.369,2.3691,2.3692,2.3737,2.3732,2.38,2.3738,2.372,2.3733,2.373,2.378,2.3786,2.3803,2.3881,2.3883,2.382,2.3823,2.3825,2.3826,0,0,0,0,0,0,0,2.3604,2.3614,2.3719,2.3692,2.3692,2.3687,2.3693,2.3745,2.3761,2.3721,2.372,2.3728,2.378,2.3798,2.3804,2.3884,2.382,2.3824,2.3827,2.3828,2.4026,2.4028,0,0,0,0,0,0,2.3599,2.3611,2.3717,2.3721,2.3644,2.3691,2.3698,2.3725,2.3761,2.3764,2.373,2.3727,2.3791,2.3798,2.3806,2.3894,2.3825,2.3829,2.3832,2.4024,2.4027,2.4029,0,0,0,0,0,0,2.3596,2.3609,2.3714,2.3665,2.3678,2.3696,2.3726,2.3727,2.3746,2.3767,2.377,2.3746,2.379,2.38,2.386,2.3896,2.3831,2.3835,2.4021,2.4025,2.4028,2.4071,0,0,0,0,0,0,2.3592,2.3608,2.3636,2.3666,2.3681,2.3768,2.3728,2.373,2.3754,2.3751,2.3783,2.3786,2.3789,2.3853,2.3865,2.3902,2.3839,2.4018,2.4022,2.4027,2.4066,2.4076,2.4084,0,0,0,0,0,2.3587,2.3645,2.3637,2.365,2.3716,2.377,2.3778,2.3781,2.3757,2.3785,2.3799,2.3785,2.389,2.386,2.3873,2.3911,2.4015,2.4021,2.4026,2.4063,2.4074,2.4083,0,0,0,0,0,0,2.3617,2.3649,2.3641,2.371,2.3738,2.3766,2.3802,2.3793,2.3827,2.3822,2.3824,2.3831,2.3894,2.3908,2.3874,2.3984,2.3949,2.3958,2.3972,2.3983,2.3992,2.3988,2.3843,0,0,0,0,0,2.3632,2.3673,2.3698,2.3757,2.3771,2.3784,2.3807,2.3807,2.3836,2.3847,2.3865,2.3893,2.3932,2.3958,2.3995,2.4068,2.4075,2.4101,2.4109,2.4116,2.4124,2.4164,2.4176,2.4047,2.4047,2.4047,0,0,2.3663,2.3685,2.3711,2.3764,2.3785,2.3828,2.3794,2.384,2.3872,2.3854,2.3913,2.3927,2.3958,2.4025,2.4056,2.4039,2.4161,2.4123,2.4128,2.4132,2.4171,2.4183,2.4194,2.4051,2.4051,2.405,0,0,2.3742,2.3762,2.3815,2.3837,2.387,2.3878,2.389,2.392,2.3929,2.3988,2.3976,2.4013,2.4081,2.4104,2.4124,2.4213,2.4201,2.4224,2.427,2.4309,2.4319,2.4329,2.4361,2.4373,2.4232,2.4232,2.4232,0,2.3777,2.3841,2.3842,2.389,2.3914,2.39,2.3953,2.3974,2.4017,2.4034,2.4014,2.41,2.4119,2.4193,2.4214,2.4231,2.4246,2.4222,2.4318,2.4327,2.4335,2.4367,2.4379,2.4234,2.4234,2.4234,2.4234,0,2.3883,2.3927,2.3965,2.4008,2.4036,2.4086,2.4095,2.4123,2.412,2.4131,2.4191,2.4214,2.4257,2.4274,2.4271,2.4347,2.4336,2.4317,2.4283,2.4351,2.438,2.4392,2.4238,2.4237,2.4237,2.4236,0,0,2.3984,2.4027,2.4041,2.4061,2.4096,2.4131,2.418,2.4222,2.4247,2.4277,2.4319,2.4376,2.436,2.4383,2.4383,2.4417,2.4487,2.4394,2.4395,2.4412,2.4574,2.4589,2.4603,2.4479,2.4481,2.4483,2.4572,0,2.4067,2.4155,2.4157,2.4238,2.428,2.4266,2.4309,2.4336,2.4346,2.4383,2.4394,2.4436,2.441,2.4425,2.4458,2.4472,2.452,2.4465,2.4519,2.4521,2.4514,2.4618,2.4634,2.4716,2.4583,2.4585,2.4586,0,2.4176,2.4211,2.4295,2.4325,2.4343,2.4382,2.4421,2.4456,2.4486,2.4491,2.4518,2.4512,2.4563,2.4526,2.4596,2.4558,2.458,2.459,2.4594,2.46,2.4559,2.4629,2.4742,2.4756,2.4604,2.4603,2.4601,0,2.4243,2.4311,2.4371,2.4388,2.4424,2.4452,2.4468,2.4495,2.4521,2.4554,2.4571,2.461,2.4632,2.4662,2.4667,2.4639,2.4738,2.4701,2.4745,2.4745,2.4767,2.4766,2.4888,2.4779,2.4778,2.4778,2.4778,0,2.4337,2.439,2.4402,2.4439,2.4498,2.45,2.4558,2.4572,2.4596,2.4636,2.4625,2.4663,2.4667,2.4705,2.4709,2.4767,2.4776,2.4783,2.4784,2.4785,2.4784,2.4801,2.4796,2.4781,2.4781,2.478,2.4779,0,2.4423,2.4433,2.4498,2.4527,2.4535,2.4578,2.4602,2.4638,2.4647,2.4697,2.4709,2.4724,2.4768,2.4776,2.4828,2.4831,2.4901,2.4895,2.4892,2.4892,2.4936,2.4932,2.5074,2.5093,2.4969,2.497,2.4971,0,2.4484,2.4524,2.4558,2.4584,2.4602,2.4643,2.467,2.4673,2.47,2.4737,2.4768,2.4812,2.4847,2.4919,2.4934,2.4974,2.497,2.5017,2.4976,2.4977,2.4973,2.4972,2.4976,2.5026,2.5027,2.5028,2.5029,0,2.459,2.4593,2.4631,2.4672,2.4703,2.4735,2.4765,2.4787,2.4794,2.4825,2.4871,2.4899,2.4952,2.4996,2.5036,2.5052,2.5043,2.5041,2.5054,2.5057,2.5054,2.5058,2.4915,2.5039,2.5038,2.5037,2.5036,2.5036,2.4667,2.4702,2.4732,2.4775,2.4798,2.4826,2.4862,2.4876,2.4914,2.4959,2.4958,2.5009,2.5037,2.509,2.5109,2.5148,2.5133,2.5151,2.5156,2.5161,2.5166,2.5046,2.5155,2.5155,2.5154,2.5154,2.5154,0,2.4774,2.4793,2.4832,2.4875,2.4909,2.4896,2.4929,2.4958,2.5003,2.5031,2.5066,2.5119,2.5161,2.518,2.5222,2.525,2.5246,2.5261,2.526,2.5264,2.5176,2.5162,2.5263,2.5263,2.5263,2.5263,2.5263,2.5263,2.4834,2.4895,2.4901,2.4973,2.4991,2.5041,2.5061,2.5087,2.5109,2.5169,2.5205,2.5217,2.5241,2.5284,2.5323,2.5327,2.5344,2.5361,2.5363,2.5281,2.527,2.5259,2.5246,2.5364,2.5364,2.5448,2.5449,2.5449]}]]